Temperature
19 19 19 20 20 21 21 21 21 20 20 19 19 19 18 18 18 18 17 17 17 17 17 17 17 17 17 16 16 16 16 16 16 16 16 16 16 17 16 16 16 16 16
19 19 19 19 20 20 21 21 21 20 20 20 20 19 19 18 18 18 18 18 17 17 17 17 17 17 17 16 16 16 16 16 16 16 17 17 17 16 16 16 16 16 16
17 17 18 18 19 19 20 21 21 21 20 20 20 20 19 19 18 18 18 18 18 17 17 17 17 17 17 17 17 16 16 16 16 16 16 16 17 18 17 16 16 16 16
16 16 16 17 17 18 19 20 20 20 20 19 20 20 19 18 18 18 18 17 17 17 17 17 17 17 16 16 16 16 16 16 16 16 16 16 16 16 17 16 16 16 16
16 16 16 16 16 17 18 19 19 19 19 19 19 19 18 18 17 17 17 17 17 17 17 17 17 16 16 16 16 16 16 16 16 15 15 15 15 15 16 17 16 16 16
16 15 15 15 15 16 17 18 18 18 18 18 18 18 17 17 17 16 17 17 17 17 17 17 16 16 16 16 16 16 16 16 15 15 15 15 15 15 15 16 16 16 16
15 15 14 14 15 15 16 16 17 17 17 17 17 16 16 16 16 16 16 17 17 17 16 16 16 16 15 15 15 15 15 15 15 15 15 15 15 15 15 15 15 15 15
15 14 14 14 14 14 15 15 15 15 15 15 15 15 15 15 15 15 16 16 16 16 16 16 16 16 15 15 15 15 15 15 15 15 15 15 14 14 14 14 14 14 15
14 14 14 13 14 14 14 14 14 14 14 14 14 14 14 15 15 15 15 16 16 16 16 16 16 15 15 15 15 15 15 15 15 14 14 14 14 14 14 14 14 14 14
13 13 13 13 13 13 13 13 13 13 13 13 13 14 14 14 14 15 15 15 16 16 16 16 16 15 15 15 15 15 15 15 15 15 14 14 14 14 14 14 14 14 14
12 13 13 13 13 13 13 13 13 13 13 13 13 14 14 14 14 14 15 15 16 16 16 16 15 15 15 15 15 15 15 15 15 14 14 14 14 14 14 14 14 14 13
12 12 12 12 13 13 13 13 13 13 13 13 14 14 14 14 14 15 15 15 16 16 16 15 15 15 15 15 15 15 15 15 14 14 14 14 13 14 14 14 13 13 13
11 11 12 12 12 13 13 13 13 13 13 14 14 14 14 14 14 15 15 15 16 15 15 15 15 15 15 15 14 14 14 14 14 14 14 13 13 13 13 13 13 13 13
11 11 11 11 12 12 13 13 13 13 14 14 14 14 14 14 15 15 15 16 15 15 15 15 15 15 15 15 14 14 14 14 14 14 14 14 13 13 13 13 13 13 13
12 11 11 11 12 12 12 12 13 13 13 13 14 14 14 15 15 15 15 15 15 15 15 15 15 15 15 14 14 14 14 14 14 14 14 14 14 14 13 13 13 13 13
12 12 12 12 12 12 12 12 12 12 13 13 13 14 14 14 15 15 15 15 15 15 15 15 15 15 14 15 15 14 14 14 14 14 14 14 14 14 14 14 14 13 13
12 12 12 12 12 12 12 12 12 12 12 12 13 13 13 13 13 14 14 14 14 15 15 14 14 14 14 15 15 15 14 14 14 14 14 14 13 14 13 13 14 13 13
13 13 13 13 13 12 12 12 12 12 12 11 12 12 12 12 12 13 13 13 13 13 13 14 13 14 14 14 14 14 14 14 14 14 14 14 14 13 13 13 13 13 13
13 13 13 13 13 13 13 13 12 12 11 11 11 11 11 11 12 12 12 12 12 12 12 13 13 13 13 13 13 14 13 13 13 13 13 13 13 13 14 14 14 13 13
13 13 14 14 14 13 13 13 13 12 11 11 11 11 11 11 11 11 11 12 12 12 12 12 12 12 12 12 12 13 13 13 13 13 13 13 13 13 14 13 13 13 13
14 14 14 14 14 13 13 13 13 12 11 11 11 11 11 11 11 11 11 11 11 11 11 11 11 11 12 12 12 12 12 12 12 13 13 13 13 13 13 13 13 13 13
14 14 14 14 14 14 13 13 13 12 12 11 11 11 11 11 11 11 11 11 11 11 11 11 11 11 11 11 11 12 12 12 12 12 12 12 13 13 13 13 13 13 13
14 14 15 15 14 14 14 14 13 13 12 11 11 11 11 11 11 11 11 11 11 11 10 10 10 10 10 10 11 11 11 11 11 12 12 12 12 12 13 13 13 13 13
14 14 15 15 15 15 14 14 14 13 12 12 11 11 11 11 11 11 10 10 10 10 10 10 10 10 10 10 10 10 11 11 11 11 11 12 12 12 12 12 12 12 12
14 14 15 15 15 15 15 15 14 13 13 12 12 11 11 11 10 10 10 10 10 10 10 10 10 10 9 10 10 10 10 10 10 10 10 10 10 11 11 11 11 12 12
14 14 15 15 15 15 15 15 15 14 13 13 12 11 11 11 10 10 10 10 10 9 9 9 10 9 9 9 10 10 10 10 10 10 10 10 10 10 10 10 11 11 11
Wind_Speed
11 9 9 8 10 13 15 16 16 16 14 11 11 10 9 8 8 8 11 12 12 12 10 7 7 7 8 9 9 8 8 7 7 6 6 6 7 6 5 5 4 4 3
14 12 11 9 9 11 15 17 17 17 16 13 12 10 8 7 7 7 9 12 13 12 10 10 8 9 9 11 10 9 8 7 8 8 7 6 7 7 8 7 6 6 5
15 15 14 12 10 10 12 14 16 16 16 15 10 8 6 4 5 6 8 10 12 11 11 10 9 10 10 9 11 11 11 9 9 9 7 6 5 4 6 9 8 7 6
15 15 15 14 12 11 10 12 13 14 13 14 11 11 6 4 4 3 5 7 9 10 10 9 9 8 8 8 9 10 9 10 9 9 9 9 5 5 4 6 8 8 8
15 15 15 14 12 11 8 5 6 9 11 12 11 9 5 2 1 0 3 5 6 8 9 8 7 7 7 8 8 8 9 9 10 9 9 10 8 10 8 6 6 6 8
15 14 14 13 11 10 6 1 5 8 10 11 10 10 9 5 2 1 3 4 4 6 8 7 7 7 6 7 7 7 9 9 10 9 9 9 8 10 10 9 7 5 6
14 14 14 12 11 10 7 4 6 9 10 12 12 11 9 6 2 1 3 4 4 5 7 7 6 6 5 5 6 7 7 9 9 10 9 9 10 9 9 9 8 6 4
14 13 12 9 8 8 7 7 8 9 10 11 12 11 9 5 1 2 4 5 4 4 6 6 6 5 5 5 5 5 6 7 8 9 10 8 9 9 9 9 8 7 6
14 11 9 8 8 8 8 9 9 10 9 9 10 9 7 5 1 3 5 4 4 4 6 6 6 5 5 5 5 5 6 6 7 8 9 9 8 8 9 9 9 8 7
12 10 8 9 9 8 9 9 9 9 9 8 7 6 6 4 1 4 6 6 6 6 6 6 6 6 6 5 4 4 3 5 5 6 7 8 8 8 8 8 8 8 8
12 10 9 9 8 8 9 9 8 7 7 6 6 5 3 1 4 6 7 6 6 6 6 6 7 7 6 6 4 3 3 4 5 6 7 8 8 7 7 7 7 8 8
13 12 11 10 9 9 8 8 7 6 5 4 3 2 2 5 7 8 6 5 5 6 7 7 7 6 6 5 5 4 4 4 4 5 5 6 6 7 7 7 8 8 8
15 13 13 12 11 10 9 8 7 5 3 2 0 2 4 6 6 4 4 5 6 6 6 7 7 7 7 6 5 5 4 4 4 4 5 5 5 6 6 7 7 7 8
14 14 13 13 12 11 10 9 7 5 3 2 1 1 2 2 2 1 2 3 4 5 6 7 7 7 7 7 7 6 5 5 5 4 4 4 4 5 4 4 5 6 7
14 14 13 12 12 12 11 11 10 8 7 6 5 4 4 3 2 1 1 2 3 5 6 6 7 7 7 7 7 7 7 7 6 6 5 4 2 5 4 4 4 4 5
13 13 13 13 13 13 13 12 12 11 10 10 9 8 7 6 6 5 3 2 1 2 3 4 5 6 6 1 3 8 8 8 8 7 6 5 5 6 6 6 5 5 4
12 12 12 12 12 12 12 12 12 11 11 11 10 9 9 8 8 7 6 5 4 3 2 2 2 3 1 3 5 9 9 10 8 8 7 6 5 5 6 7 9 8 7
11 11 11 11 11 11 11 10 11 11 12 11 11 10 9 9 8 8 8 7 6 6 5 5 4 4 6 8 5 6 11 10 9 9 8 8 8 7 5 5 6 5 4
10 9 9 9 10 10 10 10 11 11 11 11 11 11 10 10 10 9 9 8 7 7 7 7 7 6 7 12 10 7 7 7 8 8 8 8 8 5 2 7 6 5 3
9 9 8 9 9 9 9 10 10 11 11 10 10 9 9 9 9 9 8 7 6 6 6 7 7 7 8 12 13 10 3 4 4 5 6 4 4 2 4 7 6 5 2
9 9 8 8 8 7 7 8 10 10 8 8 8 8 8 8 8 8 7 7 6 6 6 6 7 7 8 10 13 12 5 4 3 3 3 2 3 2 4 7 6 3 3
9 9 8 7 6 6 6 7 6 5 5 5 6 7 7 7 7 7 7 8 7 7 7 7 7 7 7 8 10 11 9 8 3 1 1 2 2 1 3 4 1 2 3
9 9 8 8 6 5 5 5 3 2 2 4 4 5 5 6 6 7 7 7 7 7 7 7 7 7 7 7 7 7 7 7 3 3 5 4 2 2 3 5 3 3 2
9 9 9 9 8 7 5 4 2 1 1 3 4 4 5 6 6 5 5 6 7 7 7 7 7 7 7 8 8 6 4 2 2 3 4 5 5 5 6 5 3 2 2
9 9 9 9 9 8 6 4 2 2 1 2 3 4 5 5 5 5 5 6 7 7 6 6 6 7 7 10 11 7 5 4 3 2 3 3 4 5 5 5 5 4 3
10 9 10 9 9 8 6 3 2 2 1 2 4 4 4 4 4 4 5 5 4 6 9 10 9 6 8 10 11 12 11 8 6 4 5 5 5 5 5 5 5 5 4
Wind_Direction
348 343 325 298 275 252 238 231 221 214 208 199 199 198 201 205 208 211 214 215 221 225 228 225 217 215 219 219 223 223 221 226 225 227 227 227 232 237 213 227 228 208 183
350 349 340 322 291 266 248 235 223 217 208 201 198 198 197 204 208 211 216 220 223 225 230 230 227 224 226 225 224 220 224 222 220 228 236 236 219 223 226 217 228 229 195
348 346 344 335 315 287 263 243 230 216 205 196 188 176 169 168 185 208 215 220 226 228 228 231 230 229 226 227 227 221 223 222 219 227 230 239 245 219 209 216 217 223 219
348 345 342 338 329 313 286 254 232 212 195 185 179 173 177 187 203 210 215 215 217 221 222 227 229 228 228 230 229 225 225 223 218 219 231 242 255 247 225 208 220 217 219
344 342 340 337 336 331 314 269 210 182 169 167 165 152 133 119 74 320 239 220 213 215 215 217 220 227 228 232 230 228 228 226 226 220 218 227 238 245 252 233 205 207 218
340 341 340 342 345 348 351 12 139 144 148 145 136 124 114 96 66 303 252 226 209 208 208 205 211 219 225 229 228 228 228 235 235 231 226 222 224 229 233 236 227 219 213
339 339 342 344 351 360 15 54 105 114 120 124 118 110 103 88 60 295 246 229 212 202 197 198 206 210 219 224 224 228 232 232 237 237 238 238 240 241 237 235 232 228 222
341 341 345 352 4 16 29 62 87 98 107 115 114 107 99 91 54 292 255 237 224 204 188 190 194 194 203 210 217 233 232 238 236 242 245 247 248 245 239 238 232 229 226
343 350 1 14 29 34 41 62 74 83 89 96 100 97 93 89 47 290 254 239 217 192 183 181 184 185 191 205 208 228 230 238 240 243 246 246 248 246 242 239 234 232 230
351 2 17 31 45 45 46 51 58 71 78 77 80 81 70 62 345 277 253 228 210 186 183 189 187 184 186 192 204 221 228 235 238 242 246 245 244 241 236 234 233 232 238
4 14 25 30 35 38 42 43 45 48 55 60 59 54 44 321 263 254 246 226 207 190 190 196 201 191 189 190 190 215 208 231 238 238 243 247 245 240 233 230 228 226 227
17 20 23 24 26 24 24 30 31 29 28 38 41 10 280 257 249 244 232 216 208 203 203 195 203 198 200 202 199 204 216 232 245 248 248 252 248 245 237 230 229 228 226
20 23 25 23 18 16 16 20 16 5 5 15 355 261 253 249 248 241 224 215 209 208 209 207 209 205 208 209 211 211 222 229 239 248 255 257 252 250 244 238 237 233 230
24 27 28 27 23 21 21 22 18 13 8 359 352 313 297 293 279 259 240 225 220 220 221 221 220 218 218 221 221 221 225 230 231 235 245 254 256 263 260 253 252 245 239
31 31 31 30 30 31 30 31 31 32 38 44 44 33 31 33 33 22 302 257 244 240 238 237 233 229 229 231 231 226 228 231 228 227 229 236 299 344 311 296 285 265 253
31 33 33 33 33 34 36 37 37 39 45 49 46 41 42 44 41 39 34 21 323 269 254 248 242 236 237 198 262 256 237 234 230 228 227 213 217 221 234 263 287 300 292
29 32 34 34 33 33 33 36 37 41 46 48 47 44 45 46 44 45 47 43 42 39 23 342 286 260 351 10 261 248 251 240 238 234 227 218 224 228 235 214 222 236 237
20 26 29 33 35 36 37 41 42 44 47 48 48 46 47 50 50 50 48 44 46 49 43 36 34 42 33 12 330 264 244 242 236 234 235 229 228 221 249 249 244 250 238
3 11 16 24 31 32 30 40 47 50 49 46 46 46 48 48 47 46 45 42 47 53 53 48 42 41 31 16 1 319 248 243 236 232 235 241 242 132 216 264 264 259 247
354 357 4 16 26 27 26 38 45 48 48 45 46 47 46 44 42 41 40 42 47 49 54 52 42 35 27 20 11 349 291 264 246 233 229 222 264 110 217 251 262 270 269
347 346 353 6 9 9 17 34 41 44 43 42 43 42 42 41 37 35 34 34 40 43 44 47 42 34 26 21 19 7 351 329 288 243 229 175 141 259 252 262 271 320 323
350 346 344 349 352 355 2 27 38 38 41 42 42 41 37 32 30 33 31 30 30 35 35 33 33 26 24 22 15 12 8 346 341 352 359 65 51 286 273 255 83 94 262
349 346 339 334 339 350 349 1 28 27 35 43 44 39 44 42 34 34 35 36 34 34 31 27 22 15 11 12 7 6 8 360 9 39 42 39 28 191 137 98 125 180 199
347 340 335 334 339 341 332 329 340 304 359 35 36 36 39 46 49 46 41 42 36 32 28 22 17 10 12 9 360 355 0 19 53 81 97 96 73 80 85 108 115 107 94
342 338 336 332 329 331 329 323 303 275 340 34 42 41 45 45 53 63 52 47 53 29 12 8 5 7 9 4 357 1 12 20 40 52 87 88 90 87 86 84 82 88 100
340 339 338 333 333 335 335 333 296 265 311 39 46 47 50 51 53 73 100 82 49 39 30 22 12 36 28 14 25 33 34 33 25 54 75 72 70 71 74 78 77 73 70
Height
1512 1510 1508 1508 1508 1509 1511 1514 1516 1519 1520 1522 1523 1525 1527 1529 1530 1532 1534 1536 1538 1539 1541 1543 1545 1545 1546 1547 1549 1550 1551 1552 1554 1555 1555 1555 1554 1556 1555 1555 1556 1556 1556
1510 1508 1506 1505 1503 1503 1504 1507 1510 1513 1515 1516 1519 1521 1524 1526 1528 1529 1530 1532 1534 1536 1538 1539 1541 1542 1543 1544 1545 1546 1547 1548 1550 1552 1552 1552 1553 1550 1552 1552 1553 1555 1554
1509 1506 1503 1501 1499 1498 1498 1500 1503 1506 1508 1511 1513 1516 1519 1522 1524 1526 1527 1529 1531 1533 1534 1536 1538 1538 1539 1540 1541 1542 1543 1544 1545 1547 1548 1548 1548 1548 1549 1549 1550 1551 1552
1508 1505 1501 1498 1495 1493 1492 1493 1495 1498 1501 1504 1506 1510 1514 1518 1521 1523 1525 1526 1528 1529 1531 1532 1534 1535 1536 1537 1538 1538 1539 1540 1540 1541 1542 1544 1545 1546 1546 1546 1547 1548 1548
1508 1504 1500 1496 1493 1489 1487 1487 1488 1491 1493 1497 1499 1503 1508 1512 1517 1520 1522 1523 1524 1526 1528 1529 1531 1532 1533 1534 1534 1535 1535 1536 1537 1537 1538 1539 1540 1541 1542 1543 1544 1544 1544
1507 1503 1499 1495 1491 1487 1485 1484 1484 1486 1488 1491 1494 1497 1502 1507 1512 1516 1520 1521 1521 1523 1524 1526 1528 1529 1530 1531 1531 1531 1531 1532 1533 1533 1534 1535 1536 1536 1537 1538 1539 1540 1542
1507 1503 1498 1495 1491 1487 1485 1483 1483 1484 1486 1487 1490 1493 1498 1503 1508 1513 1517 1519 1520 1521 1522 1524 1525 1527 1527 1528 1528 1528 1528 1528 1529 1529 1530 1531 1532 1533 1533 1534 1535 1536 1538
1506 1502 1498 1494 1491 1488 1486 1484 1484 1484 1485 1487 1488 1491 1495 1499 1505 1510 1515 1517 1519 1520 1521 1522 1524 1524 1525 1525 1525 1525 1525 1526 1526 1526 1526 1526 1527 1528 1528 1530 1531 1532 1533
1506 1502 1498 1495 1493 1490 1488 1487 1486 1486 1486 1487 1489 1491 1495 1499 1504 1509 1513 1516 1518 1519 1521 1521 1522 1522 1523 1523 1523 1523 1523 1523 1522 1522 1522 1522 1522 1523 1524 1525 1527 1529 1529
1506 1503 1500 1497 1495 1493 1491 1490 1489 1489 1489 1490 1491 1494 1497 1501 1505 1509 1512 1515 1517 1518 1519 1520 1521 1521 1521 1521 1521 1521 1520 1520 1519 1519 1518 1518 1519 1519 1519 1521 1522 1524 1525
1508 1505 1502 1500 1498 1496 1494 1494 1493 1493 1493 1494 1496 1498 1501 1504 1507 1510 1512 1514 1516 1517 1518 1519 1520 1521 1521 1520 1520 1520 1519 1518 1518 1517 1516 1516 1516 1515 1516 1517 1518 1519 1521
1511 1508 1506 1503 1502 1500 1499 1498 1497 1497 1497 1498 1500 1502 1504 1506 1509 1511 1512 1513 1515 1516 1517 1518 1519 1519 1519 1519 1519 1518 1518 1517 1516 1516 1515 1514 1514 1513 1513 1514 1515 1515 1516
1515 1512 1509 1507 1505 1503 1502 1501 1501 1501 1501 1502 1503 1504 1506 1508 1509 1511 1511 1513 1514 1515 1516 1516 1517 1518 1518 1518 1518 1517 1517 1517 1516 1515 1514 1514 1512 1512 1511 1511 1512 1512 1513
1521 1517 1514 1512 1509 1507 1505 1504 1503 1503 1503 1504 1504 1506 1507 1508 1509 1510 1510 1511 1512 1513 1514 1515 1515 1516 1516 1516 1516 1516 1516 1516 1515 1514 1513 1513 1512 1511 1511 1510 1510 1510 1510
1527 1524 1521 1518 1515 1512 1510 1508 1506 1505 1505 1504 1505 1505 1506 1507 1507 1508 1509 1509 1510 1511 1512 1512 1512 1513 1513 1513 1514 1514 1514 1515 1514 1514 1513 1512 1511 1510 1509 1509 1509 1508 1507
1533 1530 1527 1524 1521 1518 1515 1512 1510 1508 1507 1506 1505 1505 1505 1506 1506 1506 1507 1507 1508 1508 1508 1508 1509 1509 1509 1510 1510 1511 1512 1513 1513 1513 1512 1511 1510 1509 1509 1508 1507 1507 1507
1538 1535 1532 1529 1526 1523 1520 1517 1514 1512 1510 1509 1507 1507 1506 1506 1506 1506 1506 1506 1505 1505 1505 1505 1505 1506 1506 1505 1506 1507 1508 1509 1510 1511 1511 1510 1509 1508 1509 1508 1507 1506 1505
1541 1539 1536 1533 1531 1528 1525 1522 1519 1517 1515 1513 1511 1510 1509 1508 1507 1506 1505 1505 1504 1504 1503 1503 1503 1502 1502 1502 1502 1503 1504 1505 1506 1507 1508 1508 1509 1508 1508 1508 1508 1507 1506
1544 1542 1539 1537 1535 1532 1529 1527 1525 1522 1519 1517 1515 1514 1512 1511 1509 1508 1507 1506 1505 1504 1503 1502 1501 1500 1499 1499 1499 1499 1500 1501 1502 1503 1504 1505 1506 1505 1505 1506 1507 1506 1505
1546 1544 1542 1540 1537 1535 1532 1531 1528 1525 1523 1521 1519 1517 1516 1514 1512 1511 1509 1508 1507 1505 1504 1503 1501 1500 1499 1498 1497 1496 1497 1497 1498 1499 1500 1501 1502 1502 1503 1504 1505 1505 1504
1547 1545 1544 1542 1539 1537 1535 1533 1531 1528 1526 1524 1522 1520 1518 1517 1515 1513 1511 1509 1508 1506 1505 1503 1502 1500 1498 1497 1496 1495 1495 1494 1495 1496 1497 1497 1498 1499 1500 1501 1502 1502 1502
1549 1547 1545 1543 1541 1539 1537 1535 1533 1530 1528 1526 1524 1523 1521 1519 1516 1514 1512 1510 1509 1507 1506 1504 1503 1501 1499 1497 1495 1494 1493 1493 1493 1493 1494 1494 1495 1496 1497 1498 1499 1499 1500
1549 1547 1545 1544 1542 1540 1538 1536 1534 1532 1530 1528 1527 1525 1523 1520 1518 1516 1514 1512 1510 1508 1507 1505 1504 1502 1500 1498 1495 1494 1492 1492 1491 1491 1491 1492 1493 1494 1495 1496 1497 1498 1498
1549 1547 1545 1544 1542 1540 1538 1536 1534 1532 1531 1530 1528 1527 1525 1523 1520 1517 1515 1514 1512 1511 1509 1507 1505 1503 1501 1498 1496 1494 1492 1491 1491 1491 1491 1491 1492 1492 1493 1494 1495 1496 1497
1549 1547 1545 1543 1541 1539 1537 1536 1534 1533 1532 1531 1530 1528 1526 1524 1522 1520 1518 1516 1515 1513 1511 1509 1508 1505 1503 1500 1497 1494 1492 1492 1491 1491 1491 1492 1492 1493 1493 1494 1495 1496 1496
1549 1547 1545 1542 1540 1538 1537 1535 1534 1533 1533 1532 1531 1529 1528 1526 1524 1522 1521 1519 1517 1516 1514 1512 1510 1508 1505 1502 1499 1496 1495 1494 1493 1493 1493 1494 1494 1495 1495 1496 1496 1497 1497